Location: Sihaung
(22.8641°N, 94.0549°E)
Time: 11:24:26
(UTC+00:00)

Fermi - Pass Details

Date: 03 March 2021
Orbit: 523 x 540 km, 25.6° (Epoch: 16 April)

Event Time Altitude Azimuth Distance (km) Brightness Sun altitude
Exits shadow 22:22:30 56° 29° (NNE) 619 4.1 -23.9°
Drops below altitude 10° 22:26:08 10° 84° (E) 1,745 7.5 -23.1°
Sets 22:28:24 0° 88° (E) 2,631 8.8 -22.6°
